| time (UTC) | temp F | wind direction | speed knots | gust knots | rain 1hr in | rain 24hr in | rain mn in | humidity % | barometer mb |
| 20260505124817 | 36 | 255 | 3.5 | 8.7 | 0.00 | 0.00 | 0.00 | 64 | 1011.1 |
| 20260505124314 | 37 | 239 | 4.3 | 6.1 | 0.00 | 0.00 | 0.00 | 66 | 1011.2 |
| 20260505123810 | 36 | 265 | 3.5 | 5.2 | 0.00 | 0.00 | 0.00 | 66 | 1010.9 |
| 20260505123307 | 36 | 272 | 3.5 | 5.2 | 0.00 | 0.00 | 0.00 | 67 | 1011.0 |
| 20260505122803 | 36 | 293 | 3.5 | 3.5 | 0.00 | 0.00 | 0.00 | 67 | 1010.8 |
| 20260505122301 | 36 | 308 | 2.6 | 5.2 | 0.00 | 0.00 | 0.00 | 67 | 1010.9 |
| 20260505121757 | 35 | 249 | 0.9 | 1.7 | 0.00 | 0.00 | 0.00 | 67 | 1010.9 |
| 20260505121254 | 35 | 261 | 1.7 | 2.6 | 0.00 | 0.00 | 0.00 | 66 | 1010.6 |
| 20260505120750 | 35 | 302 | 3.5 | 5.2 | 0.00 | 0.00 | 0.00 | 67 | 1010.7 |
| 20260505120247 | 35 | 239 | 0.0 | 0.9 | 0.00 | 0.00 | 0.00 | 67 | 1010.6 |
| 20260505115745 | 35 | 314 | 1.7 | 3.5 | 0.00 | 0.00 | 0.00 | 67 | 1010.6 |
| 20260505115243 | 34 | 332 | 1.7 | 2.6 | 0.00 | 0.00 | 0.00 | 68 | 1010.5 |
| 20260505114740 | 34 | 246 | 0.9 | 1.7 | 0.00 | 0.00 | 0.00 | 67 | 1010.2 |
| 20260505114236 | 33 | 246 | 0.9 | 2.6 | 0.00 | 0.00 | 0.00 | 68 | 1010.2 |
| 20260505113733 | 33 | 303 | 1.7 | 2.6 | 0.00 | 0.00 | 0.00 | 70 | 1010.3 |
| 20260505113230 | 32 | 240 | 0.0 | 0.9 | 0.00 | 0.00 | 0.00 | 72 | 1010.1 |
| 20260505112726 | 32 | 282 | 1.7 | 1.7 | 0.00 | 0.00 | 0.00 | 73 | 1010.4 |
| 20260505112224 | 32 | 262 | 0.9 | 2.6 | 0.00 | 0.00 | 0.00 | 74 | 1010.1 |
| 20260505111723 | 32 | 223 | 0.0 | 1.7 | 0.00 | 0.00 | 0.00 | 74 | 1010.3 |
| 20260505111219 | 32 | 247 | 0.9 | 1.7 | 0.00 | 0.00 | 0.00 | 75 | 1010.2 |
| 20260505110715 | 32 | 229 | 0.9 | 2.6 | 0.00 | 0.00 | 0.00 | 75 | 1010.1 |
| 20260505110213 | 32 | 239 | 1.7 | 2.6 | 0.00 | 0.00 | 0.00 | 74 | 1010.2 |
| 20260505102148 | 33 | 275 | 0.0 | 0.9 | 0.00 | 0.00 | 0.00 | 71 | 1010.0 |
| 20260505101647 | 34 | 281 | 0.9 | 3.5 | 0.00 | 0.00 | 0.00 | 71 | 1009.9 |
| 20260505101143 | 33 | 307 | 1.7 | 1.7 | 0.00 | 0.00 | 0.00 | 72 | 1009.7 |
| 20260505100639 | 34 | 272 | 0.0 | 2.6 | 0.00 | 0.00 | 0.00 | 70 | 1010.1 |
| 20260505100136 | 34 | 295 | 0.9 | 0.9 | 0.00 | 0.00 | 0.00 | 71 | 1009.9 |
| 20260505095632 | 34 | 341 | 2.6 | 2.6 | 0.00 | 0.00 | 0.00 | 70 | 1010.1 |
| 20260505095130 | 35 | 266 | 0.9 | 3.5 | 0.00 | 0.00 | 0.00 | 69 | 1010.2 |
| 20260505094626 | 35 | 29 | 0.9 | 2.6 | 0.00 | 0.00 | 0.00 | 69 | 1010.1 |
| 20260505094122 | 35 | 22 | 0.9 | 2.6 | 0.00 | 0.00 | 0.00 | 69 | 1010.1 |
| 20260505093618 | 35 | 285 | 1.7 | 1.7 | 0.00 | 0.00 | 0.00 | 69 | 1010.0 |
| 20260505093116 | 35 | 330 | 1.7 | 5.2 | 0.00 | 0.00 | 0.00 | 69 | 1010.1 |
| 20260505092613 | 35 | 323 | 0.9 | 5.2 | 0.00 | 0.00 | 0.00 | 69 | 1010.0 |
| 20260505092112 | 35 | 326 | 1.7 | 1.7 | 0.00 | 0.00 | 0.00 | 68 | 1009.9 |
| 20260505091608 | 36 | 18 | 2.6 | 5.2 | 0.00 | 0.00 | 0.00 | 67 | 1010.1 |
| 20260505091106 | 36 | 357 | 2.6 | 5.2 | 0.00 | 0.00 | 0.00 | 67 | 1010.0 |
| 20260505090604 | 36 | 348 | 4.3 | 7.0 | 0.00 | 0.00 | 0.00 | 66 | 1010.0 |
| 20260505085559 | 36 | 9 | 2.6 | 6.1 | 0.00 | 0.00 | 0.00 | 70 | 1010.0 |
| 20260505085057 | 36 | 13 | 0.9 | 5.2 | 0.00 | 0.00 | 0.00 | 72 | 1009.7 |
| 20260505084555 | 36 | 30 | 1.7 | 5.2 | 0.00 | 0.00 | 0.00 | 73 | 1009.9 |
| 20260505084053 | 37 | 76 | 1.7 | 6.1 | 0.00 | 0.00 | 0.00 | 73 | 1009.7 |
| 20260505083549 | 37 | 342 | 1.7 | 2.6 | 0.00 | 0.00 | 0.00 | 74 | 1009.7 |
| 20260505083046 | 37 | 29 | 0.9 | 3.5 | 0.00 | 0.00 | 0.00 | 75 | 1009.5 |
| 20260505082542 | 36 | 5 | 3.5 | 5.2 | 0.00 | 0.00 | 0.00 | 76 | 1009.6 |
| 20260505082039 | 36 | 305 | 0.0 | 2.6 | 0.00 | 0.00 | 0.00 | 77 | 1009.6 |
| 20260505081535 | 37 | 313 | 1.7 | 2.6 | 0.00 | 0.00 | 0.00 | 76 | 1009.4 |
| 20260505081032 | 37 | 314 | 4.3 | 6.1 | 0.00 | 0.00 | 0.00 | 75 | 1009.4 |
| 20260505080529 | 37 | 314 | 3.5 | 5.2 | 0.00 | 0.00 | 0.00 | 74 | 1009.5 |
| 20260505080026 | 37 | 324 | 4.3 | 6.1 | 0.00 | 0.00 | 0.00 | 73 | 1009.6 |
| 20260505075521 | 38 | 331 | 2.6 | 7.0 | 0.00 | 0.00 | 0.00 | 73 | 1009.6 |
| 20260505075018 | 38 | 73 | 0.9 | 6.1 | 0.00 | 0.00 | 0.00 | 73 | 1009.5 |
| 20260505074516 | 38 | 359 | 3.5 | 6.1 | 0.00 | 0.00 | 0.00 | 72 | 1009.4 |
| 20260505074013 | 38 | 335 | 1.7 | 1.7 | 0.00 | 0.00 | 0.00 | 72 | 1009.4 |
| 20260505073510 | 39 | 53 | 3.5 | 6.1 | 0.00 | 0.00 | 0.00 | 72 | 1009.4 |
| 20260505073008 | 39 | 343 | 2.6 | 3.5 | 0.00 | 0.00 | 0.00 | 71 | 1009.4 |
| 20260505072504 | 39 | 312 | 4.3 | 6.1 | 0.00 | 0.00 | 0.00 | 71 | 1009.5 |
| 20260505072000 | 39 | 5 | 4.3 | 6.1 | 0.00 | 0.00 | 0.00 | 70 | 1009.4 |
| 20260505071455 | 39 | 359 | 1.7 | 3.5 | 0.00 | 0.00 | 0.00 | 70 | 1009.4 |
| 20260505070954 | 39 | 358 | 0.9 | 1.7 | 0.00 | 0.00 | 0.00 | 68 | 1009.2 |
| 20260505070450 | 39 | 336 | 3.5 | 6.1 | 0.00 | 0.00 | 0.00 | 67 | 1009.4 |
| 20260505065946 | 40 | 10 | 3.5 | 3.5 | 0.00 | 0.00 | 0.00 | 67 | 1009.2 |
| 20260505065443 | 40 | 334 | 3.5 | 7.0 | 0.00 | 0.00 | 0.00 | 66 | 1009.3 |
| 20260505064939 | 40 | 355 | 3.5 | 5.2 | 0.00 | 0.00 | 0.00 | 67 | 1009.3 |
| 20260505064436 | 40 | 341 | 2.6 | 7.0 | 0.00 | 0.00 | 0.00 | 66 | 1009.2 |
| 20260505063935 | 40 | 316 | 2.6 | 3.5 | 0.00 | 0.00 | 0.00 | 67 | 1009.2 |
| 20260505063431 | 40 | 256 | 3.5 | 7.0 | 0.00 | 0.00 | 0.00 | 66 | 1009.1 |
| 20260505062928 | 40 | 332 | 2.6 | 5.2 | 0.00 | 0.00 | 0.00 | 67 | 1009.1 |
| 20260505062425 | 40 | 268 | 0.9 | 1.7 | 0.00 | 0.00 | 0.00 | 68 | 1009.3 |
| 20260505061921 | 40 | 302 | 2.6 | 2.6 | 0.00 | 0.00 | 0.00 | 68 | 1009.1 |
| 20260505061420 | 40 | 287 | 0.9 | 3.5 | 0.00 | 0.00 | 0.00 | 68 | 1009.3 |
| 20260505060917 | 40 | 276 | 1.7 | 2.6 | 0.00 | 0.00 | 0.00 | 69 | 1009.0 |
| 20260505060414 | 40 | 255 | 1.7 | 6.1 | 0.00 | 0.00 | 0.00 | 68 | 1009.0 |
| 20260505055910 | 40 | 284 | 0.9 | 6.1 | 0.00 | 0.00 | 0.00 | 68 | 1008.9 |
| 20260505055406 | 40 | 324 | 2.6 | 6.1 | 0.00 | 0.00 | 0.00 | 68 | 1008.9 |
| 20260505054903 | 40 | 280 | 4.3 | 5.2 | 0.00 | 0.00 | 0.00 | 69 | 1008.9 |
| 20260505054400 | 40 | 342 | 1.7 | 5.2 | 0.00 | 0.00 | 0.00 | 70 | 1008.9 |
| 20260505053859 | 40 | 259 | 1.7 | 2.6 | 0.00 | 0.00 | 0.00 | 71 | 1008.9 |
| 20260505053355 | 39 | 315 | 4.3 | 5.2 | 0.00 | 0.00 | 0.00 | 71 | 1009.0 |
| 20260505052852 | 39 | 293 | 1.7 | 1.7 | 0.00 | 0.00 | 0.00 | 71 | 1009.0 |
| 20260505052349 | 39 | 244 | 0.9 | 2.6 | 0.00 | 0.00 | 0.00 | 72 | 1008.9 |
| 20260505051846 | 39 | 279 | 1.7 | 2.6 | 0.00 | 0.00 | 0.00 | 71 | 1008.9 |
| 20260505051343 | 39 | 245 | 1.7 | 1.7 | 0.00 | 0.00 | 0.00 | 71 | 1008.8 |
| 20260505050841 | 39 | 232 | 0.9 | 1.7 | 0.00 | 0.00 | 0.00 | 71 | 1008.6 |
| 20260505050340 | 39 | 243 | 0.9 | 2.6 | 0.00 | 0.00 | 0.00 | 70 | 1008.7 |
| 20260505041307 | 40 | 332 | 2.6 | 5.2 | 0.00 | 0.00 | 0.00 | 68 | 1008.7 |
| 20260505040804 | 40 | 282 | 0.0 | 1.7 | 0.00 | 0.00 | 0.00 | 68 | 1008.6 |
| 20260505040302 | 41 | 2 | 0.9 | 2.6 | 0.00 | 0.00 | 0.00 | 67 | 1008.6 |
| 20260505035758 | 41 | 337 | 2.6 | 6.1 | 0.00 | 0.00 | 0.00 | 65 | 1008.4 |
| 20260505035254 | 41 | 320 | 2.6 | 3.5 | 0.00 | 0.00 | 0.00 | 65 | 1008.8 |
| 20260505034751 | 41 | 342 | 2.6 | 6.1 | 0.00 | 0.00 | 0.00 | 64 | 1008.5 |
| 20260505034248 | 42 | 9 | 1.7 | 7.0 | 0.00 | 0.00 | 0.00 | 64 | 1008.5 |
| 20260505033744 | 42 | 333 | 3.5 | 7.8 | 0.00 | 0.00 | 0.00 | 63 | 1008.5 |
| 20260505033242 | 42 | 358 | 4.3 | 6.1 | 0.00 | 0.00 | 0.00 | 62 | 1008.6 |
| 20260505032740 | 42 | 18 | 3.5 | 6.1 | 0.00 | 0.00 | 0.00 | 61 | 1008.6 |
| 20260505032236 | 42 | 359 | 3.5 | 7.0 | 0.00 | 0.00 | 0.00 | 57 | 1008.5 |
| 20260505031733 | 43 | 23 | 1.7 | 3.5 | 0.00 | 0.00 | 0.00 | 55 | 1008.4 |
| 20260505031229 | 43 | 314 | 2.6 | 3.5 | 0.00 | 0.00 | 0.00 | 53 | 1008.1 |
| 20260505030726 | 43 | 286 | 3.5 | 5.2 | 0.00 | 0.00 | 0.00 | 53 | 1008.3 |
| 20260505030222 | 43 | 293 | 1.7 | 7.8 | 0.00 | 0.00 | 0.00 | 53 | 1008.2 |
| 20260505025718 | 43 | 304 | 3.5 | 6.1 | 0.00 | 0.00 | 0.00 | 52 | 1008.2 |
| 20260505025217 | 43 | 345 | 3.5 | 6.1 | 0.00 | 0.00 | 0.00 | 51 | 1007.8 |
| 20260505024715 | 43 | 337 | 3.5 | 5.2 | 0.00 | 0.00 | 0.00 | 51 | 1007.9 |
| 20260505024211 | 44 | 338 | 5.2 | 6.1 | 0.00 | 0.00 | 0.00 | 50 | 1007.9 |
| 20260505023709 | 44 | 306 | 4.3 | 6.1 | 0.00 | 0.00 | 0.00 | 50 | 1007.8 |
| 20260505023206 | 44 | 311 | 5.2 | 11.3 | 0.00 | 0.00 | 0.00 | 49 | 1007.9 |
| 20260505022704 | 44 | 336 | 4.3 | 5.2 | 0.00 | 0.00 | 0.00 | 49 | 1007.7 |
| 20260505022200 | 44 | 267 | 2.6 | 7.0 | 0.00 | 0.00 | 0.00 | 49 | 1007.8 |
| 20260505021657 | 44 | 307 | 6.1 | 9.6 | 0.00 | 0.00 | 0.00 | 49 | 1007.8 |
| 20260505021154 | 43 | 304 | 5.2 | 7.0 | 0.00 | 0.00 | 0.00 | 49 | 1007.6 |
| 20260505020649 | 44 | 315 | 3.5 | 3.5 | 0.00 | 0.00 | 0.00 | 51 | 1007.4 |
| 20260505020145 | 44 | 314 | 3.5 | 8.7 | 0.00 | 0.00 | 0.00 | 50 | 1007.5 |
| 20260505015643 | 44 | 350 | 4.3 | 7.8 | 0.00 | 0.00 | 0.00 | 50 | 1007.4 |
| 20260505015139 | 44 | 296 | 3.5 | 5.2 | 0.00 | 0.00 | 0.00 | 50 | 1007.2 |
| 20260505014636 | 44 | 274 | 3.5 | 8.7 | 0.00 | 0.00 | 0.00 | 50 | 1007.1 |
| 20260505014133 | 44 | 305 | 7.0 | 12.2 | 0.00 | 0.00 | 0.00 | 50 | 1007.1 |
| 20260505013631 | 44 | 298 | 7.8 | 9.6 | 0.00 | 0.00 | 0.00 | 51 | 1007.5 |
| 20260505013128 | 44 | 266 | 1.7 | 7.0 | 0.00 | 0.00 | 0.00 | 51 | 1007.1 |
| 20260505012626 | 44 | 265 | 4.3 | 7.0 | 0.00 | 0.00 | 0.00 | 51 | 1006.9 |
| 20260505012122 | 45 | 300 | 5.2 | 7.0 | 0.00 | 0.00 | 0.00 | 51 | 1006.9 |
| 20260505011618 | 45 | 12 | 3.5 | 7.0 | 0.00 | 0.00 | 0.00 | 50 | 1006.8 |
| 20260505011115 | 45 | 352 | 4.3 | 6.1 | 0.00 | 0.00 | 0.00 | 51 | 1006.8 |
| 20260505010611 | 45 | 284 | 9.6 | 13.9 | 0.00 | 0.00 | 0.00 | 49 | 1006.7 |
| 20260505010108 | 46 | 294 | 4.3 | 13.0 | 0.00 | 0.00 | 0.00 | 50 | 1006.7 |
| 20260505005604 | 46 | 1 | 5.2 | 11.3 | 0.00 | 0.00 | 0.00 | 49 | 1006.5 |
| 20260505005101 | 46 | 338 | 7.8 | 11.3 | 0.00 | 0.00 | 0.00 | 49 | 1006.5 |
| 20260505004558 | 46 | 312 | 2.6 | 12.2 | 0.00 | 0.00 | 0.00 | 51 | 1006.6 |
| 20260505004055 | 46 | 276 | 3.5 | 11.3 | 0.00 | 0.00 | 0.00 | 52 | 1006.4 |
| 20260505003552 | 47 | 327 | 3.5 | 6.1 | 0.00 | 0.00 | 0.00 | 51 | 1006.5 |
| 20260505003050 | 47 | 302 | 7.0 | 9.6 | 0.00 | 0.00 | 0.00 | 50 | 1006.3 |
| 20260505002549 | 47 | 334 | 5.2 | 13.0 | 0.00 | 0.00 | 0.00 | 50 | 1006.4 |
| 20260505002043 | 48 | 285 | 5.2 | 8.7 | 0.00 | 0.00 | 0.00 | 52 | 1006.5 |
| 20260505001540 | 47 | 49 | 5.2 | 11.3 | 0.00 | 0.00 | 0.00 | 51 | 1006.5 |
| 20260505001037 | 47 | 319 | 4.3 | 6.1 | 0.00 | 0.00 | 0.00 | 53 | 1006.5 |
| 20260505000535 | 47 | 337 | 5.2 | 11.3 | 0.00 | 0.00 | 0.00 | 50 | 1006.2 |
| 20260505000032 | 47 | 284 | 2.6 | 7.8 | 0.00 | 0.00 | 0.00 | 51 | 1006.3 |
| 20260504235529 | 48 | 293 | 2.6 | 9.6 | 0.00 | 0.00 | 0.00 | 49 | 1006.5 |
| 20260504235025 | 48 | 319 | 5.2 | 12.2 | 0.00 | 0.00 | 0.00 | 50 | 1006.3 |
| 20260504234522 | 47 | 307 | 7.8 | 14.8 | 0.00 | 0.00 | 0.00 | 50 | 1006.3 |
| 20260504234019 | 48 | 328 | 9.6 | 12.2 | 0.00 | 0.00 | 0.00 | 48 | 1006.4 |
| 20260504233515 | 47 | 273 | 7.0 | 14.8 | 0.00 | 0.00 | 0.00 | 49 | 1006.4 |
| 20260504233012 | 47 | 310 | 5.2 | 13.9 | 0.00 | 0.00 | 0.00 | 48 | 1006.3 |
| 20260504232509 | 47 | 273 | 8.7 | 13.9 | 0.00 | 0.00 | 0.00 | 48 | 1006.3 |
| 20260504232007 | 47 | 245 | 7.8 | 9.6 | 0.00 | 0.00 | 0.00 | 50 | 1006.3 |
| 20260504231503 | 47 | 321 | 9.6 | 12.2 | 0.00 | 0.00 | 0.00 | 49 | 1006.1 |
| 20260504230959 | 47 | 258 | 5.2 | 7.8 | 0.00 | 0.00 | 0.00 | 49 | 1006.2 |
| 20260504230455 | 47 | 337 | 7.0 | 7.8 | 0.00 | 0.00 | 0.00 | 49 | 1006.3 |
| 20260504225954 | 47 | 275 | 7.8 | 8.7 | 0.00 | 0.00 | 0.00 | 47 | 1006.2 |
| 20260504225451 | 47 | 281 | 9.6 | 13.9 | 0.00 | 0.00 | 0.00 | 46 | 1006.2 |
| 20260504224948 | 47 | 302 | 9.6 | 14.8 | 0.00 | 0.00 | 0.00 | 47 | 1006.3 |
| 20260504224444 | 47 | 271 | 6.1 | 9.6 | 0.00 | 0.00 | 0.00 | 47 | 1006.3 |
| 20260504223941 | 47 | 338 | 6.1 | 7.8 | 0.00 | 0.00 | 0.00 | 46 | 1006.3 |
| 20260504223437 | 47 | 320 | 8.7 | 12.2 | 0.00 | 0.00 | 0.00 | 47 | 1006.4 |
| 20260504222933 | 47 | 338 | 8.7 | 11.3 | 0.00 | 0.00 | 0.00 | 47 | 1006.3 |
| 20260504222431 | 47 | 297 | 7.0 | 11.3 | 0.00 | 0.00 | 0.00 | 47 | 1006.0 |
| 20260504221929 | 47 | 329 | 6.1 | 13.9 | 0.00 | 0.00 | 0.00 | 48 | 1006.1 |
| 20260504221425 | 47 | 32 | 5.2 | 8.7 | 0.00 | 0.00 | 0.00 | 48 | 1006.0 |
| 20260504220922 | 47 | 297 | 5.2 | 7.8 | 0.00 | 0.00 | 0.00 | 50 | 1006.1 |
| 20260504220419 | 47 | 306 | 9.6 | 13.9 | 0.00 | 0.00 | 0.00 | 48 | 1006.1 |
| 20260504215916 | 47 | 296 | 9.6 | 13.9 | 0.00 | 0.00 | 0.00 | 47 | 1006.1 |
| 20260504215413 | 48 | 280 | 7.0 | 8.7 | 0.00 | 0.00 | 0.00 | 46 | 1006.1 |
| 20260504214909 | 47 | 273 | 8.7 | 16.5 | 0.00 | 0.00 | 0.00 | 50 | 1006.0 |
| 20260504214406 | 46 | 299 | 9.6 | 11.3 | 0.00 | 0.00 | 0.00 | 51 | 1006.2 |
| 20260504213903 | 46 | 300 | 9.6 | 13.9 | 0.00 | 0.00 | 0.00 | 51 | 1006.0 |
| 20260504213358 | 46 | 318 | 7.8 | 11.3 | 0.00 | 0.00 | 0.00 | 52 | 1006.0 |
| 20260504212856 | 46 | 256 | 8.7 | 12.2 | 0.00 | 0.00 | 0.00 | 53 | 1005.9 |
| 20260504212351 | 46 | 307 | 7.8 | 11.3 | 0.00 | 0.00 | 0.00 | 52 | 1006.3 |
| 20260504211850 | 46 | 285 | 5.2 | 9.6 | 0.00 | 0.00 | 0.00 | 56 | 1005.9 |
| 20260504211346 | 46 | 7 | 4.3 | 11.3 | 0.00 | 0.00 | 0.00 | 53 | 1005.9 |
| 20260504210843 | 46 | 295 | 5.2 | 13.0 | 0.00 | 0.00 | 0.00 | 52 | 1006.0 |
| 20260504210340 | 47 | 295 | 5.2 | 14.8 | 0.00 | 0.00 | 0.00 | 53 | 1005.9 |
| 20260504205837 | 47 | 308 | 5.2 | 13.9 | 0.00 | 0.00 | 0.00 | 52 | 1005.6 |
| 20260504205335 | 47 | 294 | 6.1 | 11.3 | 0.00 | 0.00 | 0.00 | 53 | 1005.8 |
| 20260504204833 | 48 | 314 | 7.8 | 18.2 | 0.00 | 0.00 | 0.00 | 52 | 1005.5 |
| 20260504204331 | 47 | 304 | 10.4 | 14.8 | 0.00 | 0.00 | 0.00 | 53 | 1005.5 |
| 20260504203830 | 49 | 310 | 8.7 | 13.9 | 0.00 | 0.00 | 0.00 | 52 | 1005.3 |
| 20260504203327 | 48 | 320 | 6.1 | 13.9 | 0.00 | 0.00 | 0.00 | 52 | 1005.3 |
| 20260504202822 | 49 | 277 | 7.0 | 20.0 | 0.00 | 0.00 | 0.00 | 51 | 1005.3 |
| 20260504202320 | 49 | 299 | 9.6 | 14.8 | 0.00 | 0.00 | 0.00 | 51 | 1005.2 |
| 20260504201816 | 49 | 287 | 11.3 | 14.8 | 0.00 | 0.00 | 0.00 | 49 | 1005.1 |
| 20260504201314 | 49 | 291 | 5.2 | 13.0 | 0.00 | 0.00 | 0.00 | 50 | 1005.3 |
| 20260504200811 | 48 | 20 | 9.6 | 14.8 | 0.00 | 0.00 | 0.00 | 50 | 1005.1 |
| 20260504200308 | 49 | 273 | 12.2 | 15.6 | 0.00 | 0.00 | 0.00 | 48 | 1005.0 |
| 20260504195803 | 49 | 275 | 2.6 | 9.6 | 0.00 | 0.00 | 0.00 | 54 | 1004.7 |
| 20260504195300 | 49 | 288 | 9.6 | 13.9 | 0.00 | 0.00 | 0.00 | 50 | 1005.1 |
| 20260504194757 | 49 | 254 | 4.3 | 13.9 | 0.00 | 0.00 | 0.00 | 54 | 1004.7 |
| 20260504194253 | 50 | 240 | 8.7 | 16.5 | 0.00 | 0.00 | 0.00 | 50 | 1005.0 |
| 20260504193749 | 49 | 316 | 8.7 | 11.3 | 0.00 | 0.00 | 0.00 | 51 | 1004.7 |
| 20260504193247 | 48 | 298 | 5.2 | 13.9 | 0.00 | 0.00 | 0.00 | 54 | 1005.0 |
| 20260504192745 | 48 | 285 | 10.4 | 16.5 | 0.00 | 0.00 | 0.00 | 51 | 1004.9 |
| 20260504192243 | 48 | 21 | 7.8 | 20.0 | 0.00 | 0.00 | 0.00 | 52 | 1004.5 |
| 20260504191741 | 48 | 316 | 5.2 | 9.6 | 0.00 | 0.00 | 0.00 | 52 | 1004.5 |
| 20260504191238 | 48 | 287 | 9.6 | 15.6 | 0.00 | 0.00 | 0.00 | 50 | 1004.5 |
| 20260504190733 | 50 | 341 | 8.7 | 11.3 | 0.00 | 0.00 | 0.00 | 51 | 1004.3 |
| 20260504190230 | 50 | 262 | 9.6 | 18.2 | 0.00 | 0.00 | 0.00 | 51 | 1004.2 |
| 20260504185726 | 50 | 266 | 5.2 | 8.7 | 0.00 | 0.00 | 0.00 | 54 | 1004.1 |
| 20260504185223 | 49 | 346 | 8.7 | 13.0 | 0.00 | 0.00 | 0.00 | 50 | 1004.1 |
| 20260504184719 | 49 | 333 | 11.3 | 18.2 | 0.00 | 0.00 | 0.00 | 50 | 1004.2 |
| 20260504184215 | 48 | 271 | 7.8 | 12.2 | 0.00 | 0.00 | 0.00 | 52 | 1004.1 |
| 20260504183711 | 49 | 261 | 4.3 | 19.1 | 0.00 | 0.00 | 0.00 | 54 | 1004.1 |
| 20260504183208 | 50 | 277 | 9.6 | 13.0 | 0.00 | 0.00 | 0.00 | 51 | 1004.1 |
| 20260504182706 | 48 | 291 | 14.8 | 16.5 | 0.00 | 0.00 | 0.00 | 52 | 1003.9 |
| 20260504182204 | 49 | 329 | 6.1 | 13.9 | 0.00 | 0.00 | 0.00 | 54 | 1003.8 |
| 20260504181701 | 49 | 190 | 3.5 | 12.2 | 0.00 | 0.00 | 0.00 | 54 | 1003.9 |
| 20260504181158 | 49 | 286 | 7.8 | 13.0 | 0.00 | 0.00 | 0.00 | 53 | 1003.6 |
| 20260504180657 | 50 | 308 | 7.8 | 14.8 | 0.00 | 0.00 | 0.00 | 51 | 1003.7 |
| 20260504180155 | 48 | 262 | 8.7 | 13.9 | 0.00 | 0.00 | 0.00 | 55 | 1003.5 |
| 20260504175652 | 49 | 302 | 10.4 | 18.2 | 0.00 | 0.00 | 0.00 | 54 | 1003.4 |
| 20260504175149 | 49 | 298 | 13.0 | 20.9 | 0.00 | 0.00 | 0.00 | 53 | 1003.4 |
| 20260504174647 | 50 | 305 | 5.2 | 13.0 | 0.00 | 0.00 | 0.00 | 55 | 1003.5 |
| 20260504174144 | 49 | 346 | 8.7 | 13.0 | 0.00 | 0.00 | 0.00 | 54 | 1003.6 |
| 20260504173641 | 49 | 280 | 7.8 | 16.5 | 0.00 | 0.00 | 0.00 | 53 | 1003.2 |
| 20260504173138 | 50 | 356 | 5.2 | 12.2 | 0.00 | 0.00 | 0.00 | 55 | 1003.4 |
| 20260504172635 | 51 | 292 | 11.3 | 15.6 | 0.00 | 0.00 | 0.00 | 50 | 1003.0 |
| 20260504172131 | 48 | 334 | 8.7 | 16.5 | 0.00 | 0.00 | 0.00 | 55 | 1003.3 |
| 20260504171628 | 48 | 311 | 9.6 | 13.0 | 0.00 | 0.00 | 0.00 | 56 | 1003.2 |
| 20260504171125 | 49 | 322 | 7.8 | 16.5 | 0.00 | 0.00 | 0.00 | 56 | 1003.1 |
| 20260504170621 | 49 | 259 | 2.6 | 14.8 | 0.00 | 0.00 | 0.00 | 60 | 1002.8 |
| 20260504170119 | 50 | 276 | 5.2 | 15.6 | 0.00 | 0.00 | 0.00 | 56 | 1003.3 |
| 20260504151004 | 50 | 273 | 11.3 | 13.9 | 0.00 | 0.00 | 0.00 | 63 | 1001.7 |
| 20260504150502 | 49 | 13 | 3.5 | 13.9 | 0.00 | 0.00 | 0.00 | 65 | 1001.8 |
| 20260504140928 | 50 | 325 | 14.8 | 20.9 | 0.00 | 0.00 | 0.00 | 59 | 1001.1 |
| 20260504140424 | 49 | 285 | 9.6 | 15.6 | 0.00 | 0.00 | 0.00 | 59 | 1000.9 |
| 20260504130349 | 50 | 287 | 6.1 | 16.5 | 0.00 | 0.00 | 0.00 | 70 | 1000.2 |